,,PressureMeas_1m,,PRMeasQMR101_1,,RHStat155_1m_1,,SRMeasQMS101R_1m,,TAStat155_1m_1,,GenWind_1,,GenWind_1,
2017-04-07, 00:00:06,VALID,917.968,VALID,0.0,VALID,98.533,VALID,0.005,VALID,20.128,VALID,22.0,VALID,0.093,
2017-04-07, 00:01:06,VALID,917.953,VALID,0.0,VALID,98.536,VALID,0.01,VALID,20.135,VALID,22.0,VALID,0.038,
2017-04-07, 00:02:06,VALID,917.939,VALID,0.0,VALID,98.497,VALID,0.015,VALID,20.126,VALID,22.0,VALID,0.0,
2017-04-07, 00:03:06,VALID,917.931,VALID,0.0,VALID,98.486,VALID,-0.004,VALID,20.12,VALID,22.0,VALID,0.006,
2017-04-07, 00:04:06,VALID,917.906,VALID,0.0,VALID,98.466,VALID,-0.006,VALID,20.088,VALID,22.0,VALID,0.032,
2017-04-07, 00:05:06,VALID,917.879,VALID,0.0,VALID,98.47,VALID,0.002,VALID,20.074,VALID,22.0,VALID,0.502,
2017-04-07, 00:06:06,VALID,917.869,VALID,0.0,VALID,98.474,VALID,-0.013,VALID,20.079,VALID,35.0,VALID,0.345,
2017-04-07, 00:07:06,VALID,917.848,VALID,0.0,VALID,98.483,VALID,0.009,VALID,20.099,VALID,14.0,VALID,0.423,
2017-04-07, 00:08:06,VALID,917.829,VALID,0.0,VALID,98.482,VALID,0.003,VALID,20.109,VALID,27.0,VALID,0.278,
2017-04-07, 00:09:06,VALID,917.812,VALID,0.0,VALID,98.493,VALID,-0.007,VALID,20.118,VALID,13.0,VALID,0.502,
2017-04-07, 00:10:06,VALID,917.799,VALID,0.0,VALID,98.492,VALID,-0.009,VALID,20.11,VALID,23.0,VALID,0.636,
2017-04-07, 00:11:06,VALID,917.791,VALID,0.0,VALID,98.448,VALID,-0.009,VALID,20.079,VALID,9.0,VALID,0.637,
2017-04-07, 00:12:06,VALID,917.784,VALID,0.0,VALID,98.468,VALID,-0.002,VALID,20.077,VALID,16.0,VALID,0.64,
2017-04-07, 00:13:06,VALID,917.769,VALID,0.0,VALID,98.462,VALID,0.011,VALID,20.08,VALID,10.0,VALID,0.888,
2017-04-07, 00:14:06,VALID,917.75,VALID,0.0,VALID,98.43,VALID,0.004,VALID,20.04,VALID,18.0,VALID,0.721,
2017-04-07, 00:15:06,VALID,917.741,VALID,0.0,VALID,98.434,VALID,-0.009,VALID,20.029,VALID,19.0,VALID,0.598,
2017-04-07, 00:16:06,VALID,917.747,VALID,0.0,VALID,98.456,VALID,0.008,VALID,20.025,VALID,11.0,VALID,0.574,
2017-04-07, 00:17:06,VALID,917.73,VALID,0.0,VALID,98.481,VALID,0.003,VALID,20.041,VALID,344.0,VALID,0.262,
2017-04-07, 00:18:06,VALID,917.719,VALID,0.0,VALID,98.472,VALID,0.001,VALID,20.038,VALID,13.0,VALID,0.321,
2017-04-07, 00:19:06,VALID,917.711,VALID,0.0,VALID,98.487,VALID,0.019,VALID,20.05,VALID,23.0,VALID,0.088,
2017-04-07, 00:20:06,VALID,917.7,VALID,0.0,VALID,98.489,VALID,0.007,VALID,20.07,VALID,18.0,VALID,0.302,
2017-04-07, 00:21:06,VALID,917.69,VALID,0.0,VALID,98.503,VALID,-0.004,VALID,20.083,VALID,12.0,VALID,0.129,
2017-04-07, 00:22:06,VALID,917.678,VALID,0.2,VALID,98.494,VALID,0.004,VALID,20.079,VALID,20.0,VALID,0.218,
2017-04-07, 00:23:06,VALID,917.656,VALID,0.0,VALID,98.491,VALID,0.007,VALID,20.079,VALID,10.0,VALID,0.005,
2017-04-07, 00:24:06,VALID,917.659,VALID,0.0,VALID,98.473,VALID,0.014,VALID,20.075,VALID,37.0,VALID,0.076,
2017-04-07, 00:25:06,VALID,917.645,VALID,0.0,VALID,98.468,VALID,0.015,VALID,20.067,VALID,39.0,VALID,0.008,
2017-04-07, 00:26:06,VALID,917.625,VALID,0.0,VALID,98.467,VALID,0.019,VALID,20.047,VALID,40.0,VALID,0.202,
2017-04-07, 00:27:06,VALID,917.615,VALID,0.0,VALID,98.463,VALID,0.01,VALID,20.044,VALID,305.0,VALID,0.207,
2017-04-07, 00:28:06,VALID,917.602,VALID,0.0,VALID,98.474,VALID,0.005,VALID,20.054,VALID,285.0,VALID,0.093,
2017-04-07, 00:29:06,VALID,917.583,VALID,0.0,VALID,98.472,VALID,0.009,VALID,20.052,VALID,360.0,VALID,0.605,
2017-04-07, 00:30:06,VALID,917.569,VALID,0.0,VALID,98.447,VALID,0.008,VALID,20.019,VALID,359.0,VALID,0.587,
2017-04-07, 00:31:06,VALID,917.546,VALID,0.0,VALID,98.48,VALID,-0.006,VALID,20.042,VALID,29.0,VALID,0.207,
2017-04-07, 00:32:06,VALID,917.542,VALID,0.0,VALID,98.51,VALID,0.004,VALID,20.069,VALID,15.0,VALID,0.656,
2017-04-07, 00:33:06,VALID,917.529,VALID,0.0,VALID,98.481,VALID,-0.009,VALID,20.038,VALID,350.0,VALID,0.383,
2017-04-07, 00:34:06,VALID,917.536,VALID,0.0,VALID,98.467,VALID,-0.002,VALID,20.028,VALID,166.0,VALID,0.162,
2017-04-07, 00:35:06,VALID,917.519,VALID,0.0,VALID,98.481,VALID,-0.005,VALID,20.036,VALID,32.0,VALID,0.271,
2017-04-07, 00:36:06,VALID,917.51,VALID,0.2,VALID,98.507,VALID,0.01,VALID,20.054,VALID,91.0,VALID,0.067,
2017-04-07, 00:37:06,VALID,917.5,VALID,0.0,VALID,98.474,VALID,0.018,VALID,20.047,VALID,240.0,VALID,0.084,
2017-04-07, 00:38:06,VALID,917.503,VALID,0.0,VALID,98.477,VALID,0.023,VALID,20.034,VALID,351.0,VALID,0.393,
2017-04-07, 00:39:06,VALID,917.498,VALID,0.0,VALID,98.508,VALID,0.009,VALID,20.069,VALID,18.0,VALID,0.351,
2017-04-07, 00:40:06,VALID,917.493,VALID,0.0,VALID,98.521,VALID,0.018,VALID,20.086,VALID,11.0,VALID,0.251,
2017-04-07, 00:41:06,VALID,917.475,VALID,0.0,VALID,98.5,VALID,0.008,VALID,20.069,VALID,306.0,VALID,0.326,
2017-04-07, 00:42:06,VALID,917.458,VALID,0.0,VALID,98.478,VALID,0.017,VALID,20.058,VALID,311.0,VALID,0.249,
2017-04-07, 00:43:06,VALID,917.445,VALID,0.0,VALID,98.485,VALID,0.011,VALID,20.076,VALID,37.0,VALID,0.135,
2017-04-07, 00:44:06,VALID,917.421,VALID,0.0,VALID,98.518,VALID,0.012,VALID,20.107,VALID,29.0,VALID,0.289,
2017-04-07, 00:45:06,VALID,917.419,VALID,0.0,VALID,98.509,VALID,-0.009,VALID,20.103,VALID,290.0,VALID,0.107,
2017-04-07, 00:46:06,VALID,917.418,VALID,0.0,VALID,98.492,VALID,0.007,VALID,20.105,VALID,24.0,VALID,0.069,
2017-04-07, 00:47:06,VALID,917.401,VALID,0.0,VALID,98.5,VALID,0.005,VALID,20.1,VALID,30.0,VALID,0.098,
2017-04-07, 00:48:06,VALID,917.364,VALID,0.0,VALID,98.468,VALID,0.003,VALID,20.076,VALID,14.0,VALID,0.284,
2017-04-07, 00:49:06,VALID,917.358,VALID,0.2,VALID,98.471,VALID,-0.004,VALID,20.075,VALID,211.0,VALID,0.081,
2017-04-07, 00:50:06,VALID,917.33,VALID,0.0,VALID,98.496,VALID,-0.01,VALID,20.096,VALID,37.0,VALID,0.288,
2017-04-07, 00:51:06,VALID,917.312,VALID,0.0,VALID,98.515,VALID,0.018,VALID,20.109,VALID,243.0,VALID,0.209,
2017-04-07, 00:52:06,VALID,917.289,VALID,0.0,VALID,98.482,VALID,0.008,VALID,20.092,VALID,323.0,VALID,0.301,
2017-04-07, 00:53:06,VALID,917.278,VALID,0.0,VALID,98.499,VALID,-0.007,VALID,20.104,VALID,4.0,VALID,0.27,
2017-04-07, 00:54:06,VALID,917.266,VALID,0.0,VALID,98.517,VALID,0.006,VALID,20.133,VALID,241.0,VALID,0.168,
2017-04-07, 00:55:06,VALID,917.233,VALID,0.0,VALID,98.513,VALID,0.003,VALID,20.135,VALID,149.0,VALID,0.082,
2017-04-07, 00:56:06,VALID,917.198,VALID,0.0,VALID,98.486,VALID,0.007,VALID,20.102,VALID,24.0,VALID,0.484,
2017-04-07, 00:57:06,VALID,917.184,VALID,0.0,VALID,98.486,VALID,0.002,VALID,20.089,VALID,10.0,VALID,0.423,
2017-04-07, 00:58:06,VALID,917.162,VALID,0.0,VALID,98.503,VALID,0.002,VALID,20.119,VALID,2.0,VALID,0.055,
2017-04-07, 00:59:06,VALID,917.134,VALID,0.0,VALID,98.508,VALID,0.013,VALID,20.131,VALID,3.0,VALID,0.132,
2017-04-07, 01:00:06,VALID,917.105,VALID,0.2,VALID,98.498,VALID,0.022,VALID,20.131,VALID,40.0,VALID,0.198,
2017-04-07, 01:01:06,VALID,917.067,VALID,0.0,VALID,98.512,VALID,-0.006,VALID,20.13,VALID,42.0,VALID,0.464,
2017-04-07, 01:02:06,VALID,917.066,VALID,0.0,VALID,98.501,VALID,0.003,VALID,20.129,VALID,67.0,VALID,0.283,
2017-04-07, 01:03:06,VALID,917.056,VALID,0.0,VALID,98.499,VALID,0.007,VALID,20.126,VALID,201.0,VALID,0.486,
2017-04-07, 01:04:06,VALID,917.07,VALID,0.0,VALID,98.481,VALID,0.013,VALID,20.124,VALID,194.0,VALID,0.254,
2017-04-07, 01:05:06,VALID,917.045,VALID,0.0,VALID,98.513,VALID,0.0,VALID,20.152,VALID,173.0,VALID,0.078,
2017-04-07, 01:06:06,VALID,917.025,VALID,0.0,VALID,98.519,VALID,0.007,VALID,20.148,VALID,111.0,VALID,0.214,
2017-04-07, 01:07:06,VALID,917.013,VALID,0.0,VALID,98.499,VALID,-0.002,VALID,20.15,VALID,18.0,VALID,0.101,
2017-04-07, 01:08:06,VALID,916.987,VALID,0.0,VALID,98.513,VALID,-0.002,VALID,20.147,VALID,344.0,VALID,0.199,
2017-04-07, 01:09:06,VALID,916.971,VALID,0.0,VALID,98.496,VALID,0.002,VALID,20.132,VALID,356.0,VALID,0.389,
2017-04-07, 01:10:06,VALID,916.958,VALID,0.2,VALID,98.488,VALID,0.009,VALID,20.13,VALID,14.0,VALID,0.249,
2017-04-07, 01:11:06,VALID,916.943,VALID,0.0,VALID,98.521,VALID,-0.006,VALID,20.148,VALID,298.0,VALID,0.197,
2017-04-07, 01:12:06,VALID,916.928,VALID,0.0,VALID,98.468,VALID,-0.01,VALID,20.123,VALID,331.0,VALID,0.259,
2017-04-07, 01:13:06,VALID,916.908,VALID,0.0,VALID,98.505,VALID,0.009,VALID,20.135,VALID,74.0,VALID,0.607,
2017-04-07, 01:14:06,VALID,916.901,VALID,0.0,VALID,98.516,VALID,0.001,VALID,20.157,VALID,13.0,VALID,0.454,
2017-04-07, 01:15:06,VALID,916.889,VALID,0.2,VALID,98.507,VALID,0.02,VALID,20.152,VALID,227.0,VALID,0.134,
2017-04-07, 01:16:06,VALID,916.878,VALID,0.0,VALID,98.504,VALID,0.006,VALID,20.141,VALID,12.0,VALID,0.294,
2017-04-07, 01:17:06,VALID,916.856,VALID,0.0,VALID,98.508,VALID,0.006,VALID,20.159,VALID,14.0,VALID,0.185,
2017-04-07, 01:18:06,VALID,916.856,VALID,0.2,VALID,98.518,VALID,0.011,VALID,20.175,VALID,248.0,VALID,0.082,
2017-04-07, 01:19:06,VALID,916.833,VALID,0.0,VALID,98.491,VALID,-0.003,VALID,20.168,VALID,186.0,VALID,0.289,
2017-04-07, 01:20:06,VALID,916.826,VALID,0.2,VALID,98.491,VALID,-0.001,VALID,20.137,VALID,38.0,VALID,0.582,
2017-04-07, 01:21:06,VALID,916.833,VALID,0.0,VALID,98.499,VALID,0.013,VALID,20.134,VALID,180.0,VALID,0.171,
2017-04-07, 01:22:06,VALID,916.821,VALID,0.2,VALID,98.499,VALID,0.012,VALID,20.141,VALID,216.0,VALID,0.052,
2017-04-07, 01:23:06,VALID,916.797,VALID,0.2,VALID,98.507,VALID,0.011,VALID,20.148,VALID,119.0,VALID,0.117,
2017-04-07, 01:24:06,VALID,916.788,VALID,0.0,VALID,98.498,VALID,0.019,VALID,20.121,VALID,170.0,VALID,0.39,
2017-04-07, 01:25:06,VALID,916.741,VALID,0.4,VALID,98.472,VALID,0.015,VALID,20.09,VALID,108.0,VALID,0.728,
2017-04-07, 01:26:06,VALID,916.713,VALID,0.2,VALID,98.488,VALID,0.009,VALID,20.086,VALID,33.0,VALID,0.441,
2017-04-07, 01:27:06,VALID,916.692,VALID,0.2,VALID,98.506,VALID,0.012,VALID,20.098,VALID,46.0,VALID,0.368,
2017-04-07, 01:28:06,VALID,916.658,VALID,0.0,VALID,98.5,VALID,0.009,VALID,20.103,VALID,53.0,VALID,0.9,
2017-04-07, 01:29:06,VALID,916.664,VALID,0.2,VALID,98.507,VALID,0.007,VALID,20.122,VALID,270.0,VALID,0.822,
2017-04-07, 01:30:06,VALID,916.653,VALID,0.2,VALID,98.458,VALID,0.031,VALID,20.089,VALID,236.0,VALID,0.242,
2017-04-07, 01:31:06,VALID,916.651,VALID,0.2,VALID,98.496,VALID,0.013,VALID,20.076,VALID,219.0,VALID,0.007,
2017-04-07, 01:32:06,VALID,916.633,VALID,0.2,VALID,98.508,VALID,0.017,VALID,20.081,VALID,218.0,VALID,0.002,
2017-04-07, 01:33:06,VALID,916.598,VALID,0.0,VALID,98.493,VALID,0.013,VALID,20.088,VALID,134.0,VALID,0.291,
2017-04-07, 01:34:06,VALID,916.549,VALID,0.0,VALID,98.49,VALID,0.004,VALID,20.08,VALID,73.0,VALID,0.6,
2017-04-07, 01:35:06,VALID,916.526,VALID,0.2,VALID,98.463,VALID,-0.002,VALID,20.06,VALID,357.0,VALID,0.747,
2017-04-07, 01:36:06,VALID,916.515,VALID,0.0,VALID,98.471,VALID,-0.022,VALID,20.055,VALID,26.0,VALID,0.772,
2017-04-07, 01:37:06,VALID,916.515,VALID,0.0,VALID,98.506,VALID,-0.004,VALID,20.067,VALID,330.0,VALID,0.275,
2017-04-07, 01:38:06,VALID,916.515,VALID,0.0,VALID,98.502,VALID,-0.014,VALID,20.07,VALID,18.0,VALID,0.233,
2017-04-07, 01:39:06,VALID,916.504,VALID,0.0,VALID,98.505,VALID,-0.013,VALID,20.084,VALID,18.0,VALID,0.0,
2017-04-07, 01:40:06,VALID,916.501,VALID,0.2,VALID,98.513,VALID,-0.005,VALID,20.083,VALID,19.0,VALID,0.069,
2017-04-07, 01:41:06,VALID,916.484,VALID,0.0,VALID,98.495,VALID,0.005,VALID,20.087,VALID,19.0,VALID,0.0,
2017-04-07, 01:42:06,VALID,916.474,VALID,0.0,VALID,98.51,VALID,-0.014,VALID,20.101,VALID,85.0,VALID,0.08,
2017-04-07, 01:43:06,VALID,916.474,VALID,0.0,VALID,98.486,VALID,-0.007,VALID,20.082,VALID,195.0,VALID,0.108,
2017-04-07, 01:44:06,VALID,916.472,VALID,0.0,VALID,98.487,VALID,-0.01,VALID,20.086,VALID,73.0,VALID,0.575,
2017-04-07, 01:45:06,VALID,916.463,VALID,0.0,VALID,98.532,VALID,-0.016,VALID,20.103,VALID,319.0,VALID,0.495,
2017-04-07, 01:46:06,VALID,916.446,VALID,0.0,VALID,98.501,VALID,-0.029,VALID,20.109,VALID,1.0,VALID,0.579,
2017-04-07, 01:47:06,VALID,916.429,VALID,0.0,VALID,98.486,VALID,-0.016,VALID,20.09,VALID,333.0,VALID,0.612,
2017-04-07, 01:48:06,VALID,916.431,VALID,0.2,VALID,98.514,VALID,-0.012,VALID,20.099,VALID,269.0,VALID,0.09,
2017-04-07, 01:49:06,VALID,916.427,VALID,0.0,VALID,98.49,VALID,-0.014,VALID,20.092,VALID,176.0,VALID,0.221,
2017-04-07, 01:50:06,VALID,916.397,VALID,0.0,VALID,98.505,VALID,-0.022,VALID,20.077,VALID,348.0,VALID,0.688,
2017-04-07, 01:51:06,VALID,916.386,VALID,0.0,VALID,98.469,VALID,-0.021,VALID,20.054,VALID,313.0,VALID,0.237,
2017-04-07, 01:52:06,VALID,916.367,VALID,0.0,VALID,98.468,VALID,-0.016,VALID,20.039,VALID,1.0,VALID,0.439,
2017-04-07, 01:53:06,VALID,916.355,VALID,0.0,VALID,98.495,VALID,-0.018,VALID,20.059,VALID,1.0,VALID,0.617,
2017-04-07, 01:54:06,VALID,916.363,VALID,0.0,VALID,98.48,VALID,-0.016,VALID,20.055,VALID,280.0,VALID,0.607,
2017-04-07, 01:55:06,VALID,916.353,VALID,0.0,VALID,98.488,VALID,-0.044,VALID,20.051,VALID,217.0,VALID,0.164,
2017-04-07, 01:56:06,VALID,916.362,VALID,0.0,VALID,98.49,VALID,-0.021,VALID,20.07,VALID,288.0,VALID,0.176,
2017-04-07, 01:57:06,VALID,916.362,VALID,0.0,VALID,98.507,VALID,-0.031,VALID,20.092,VALID,314.0,VALID,0.043,
2017-04-07, 01:58:06,VALID,916.344,VALID,0.2,VALID,98.508,VALID,-0.027,VALID,20.087,VALID,64.0,VALID,0.49,
2017-04-07, 01:59:06,VALID,916.351,VALID,0.0,VALID,98.484,VALID,-0.022,VALID,20.08,VALID,104.0,VALID,0.018,
2017-04-07, 02:00:06,VALID,916.346,VALID,0.0,VALID,98.504,VALID,-0.027,VALID,20.099,VALID,105.0,VALID,0.023,
2017-04-07, 02:01:06,VALID,916.34,VALID,0.0,VALID,98.497,VALID,-0.022,VALID,20.108,VALID,81.0,VALID,0.045,
2017-04-07, 02:02:06,VALID,916.329,VALID,0.0,VALID,98.512,VALID,-0.023,VALID,20.109,VALID,357.0,VALID,0.052,
2017-04-07, 02:03:06,VALID,916.306,VALID,0.0,VALID,98.499,VALID,-0.024,VALID,20.121,VALID,345.0,VALID,0.005,
2017-04-07, 02:04:06,VALID,916.284,VALID,0.0,VALID,98.469,VALID,-0.016,VALID,20.086,VALID,352.0,VALID,0.013,
2017-04-07, 02:05:06,VALID,916.262,VALID,0.0,VALID,98.462,VALID,-0.035,VALID,20.059,VALID,56.0,VALID,0.102,
2017-04-07, 02:06:06,VALID,916.242,VALID,0.0,VALID,98.438,VALID,-0.028,VALID,20.036,VALID,72.0,VALID,0.289,
2017-04-07, 02:07:06,VALID,916.226,VALID,0.0,VALID,98.474,VALID,-0.018,VALID,20.044,VALID,10.0,VALID,0.223,
2017-04-07, 02:08:06,VALID,916.224,VALID,0.0,VALID,98.483,VALID,-0.006,VALID,20.074,VALID,11.0,VALID,0.164,
2017-04-07, 02:09:06,VALID,916.189,VALID,0.0,VALID,98.491,VALID,-0.026,VALID,20.086,VALID,10.0,VALID,0.384,
2017-04-07, 02:10:06,VALID,916.165,VALID,0.0,VALID,98.476,VALID,-0.028,VALID,20.066,VALID,5.0,VALID,0.298,
2017-04-07, 02:11:06,VALID,916.163,VALID,0.0,VALID,98.453,VALID,-0.026,VALID,20.042,VALID,335.0,VALID,0.261,
2017-04-07, 02:12:06,VALID,916.148,VALID,0.0,VALID,98.46,VALID,-0.032,VALID,20.029,VALID,296.0,VALID,0.095,
2017-04-07, 02:13:06,VALID,916.143,VALID,0.0,VALID,98.464,VALID,-0.026,VALID,20.003,VALID,40.0,VALID,0.373,
2017-04-07, 02:14:06,VALID,916.133,VALID,0.0,VALID,98.457,VALID,-0.014,VALID,19.994,VALID,13.0,VALID,0.41,
2017-04-07, 02:15:06,VALID,916.112,VALID,0.0,VALID,98.453,VALID,-0.028,VALID,19.988,VALID,23.0,VALID,0.707,
2017-04-07, 02:16:06,VALID,916.12,VALID,0.0,VALID,98.482,VALID,-0.013,VALID,20.007,VALID,37.0,VALID,0.384,
2017-04-07, 02:17:06,VALID,916.109,VALID,0.0,VALID,98.494,VALID,-0.019,VALID,20.024,VALID,19.0,VALID,0.622,
2017-04-07, 02:18:06,VALID,916.12,VALID,0.0,VALID,98.494,VALID,-0.024,VALID,20.027,VALID,6.0,VALID,0.762,
2017-04-07, 02:19:06,VALID,916.121,VALID,0.2,VALID,98.471,VALID,-0.032,VALID,20.011,VALID,22.0,VALID,0.836,
2017-04-07, 02:20:06,VALID,916.12,VALID,0.0,VALID,98.481,VALID,-0.021,VALID,19.991,VALID,30.0,VALID,0.832,
2017-04-07, 02:21:06,VALID,916.13,VALID,0.0,VALID,98.481,VALID,-0.016,VALID,19.99,VALID,19.0,VALID,0.891,
2017-04-07, 02:22:06,VALID,916.139,VALID,0.0,VALID,98.454,VALID,-0.016,VALID,19.977,VALID,344.0,VALID,0.433,
2017-04-07, 02:23:06,VALID,916.146,VALID,0.0,VALID,98.449,VALID,-0.012,VALID,19.933,VALID,52.0,VALID,0.116,
2017-04-07, 02:24:06,VALID,916.139,VALID,0.0,VALID,98.421,VALID,-0.013,VALID,19.909,VALID,331.0,VALID,0.635,
2017-04-07, 02:25:06,VALID,916.137,VALID,0.0,VALID,98.425,VALID,-0.014,VALID,19.887,VALID,37.0,VALID,0.965,
2017-04-07, 02:26:06,VALID,916.15,VALID,0.0,VALID,98.451,VALID,-0.01,VALID,19.897,VALID,33.0,VALID,0.818,
2017-04-07, 02:27:06,VALID,916.143,VALID,0.0,VALID,98.47,VALID,-0.016,VALID,19.911,VALID,14.0,VALID,0.91,
2017-04-07, 02:28:06,VALID,916.144,VALID,0.0,VALID,98.478,VALID,-0.016,VALID,19.905,VALID,41.0,VALID,0.795,
2017-04-07, 02:29:06,VALID,916.143,VALID,0.0,VALID,98.46,VALID,-0.007,VALID,19.896,VALID,17.0,VALID,0.793,
2017-04-07, 02:30:06,VALID,916.132,VALID,0.0,VALID,98.421,VALID,-0.011,VALID,19.875,VALID,8.0,VALID,0.51,
2017-04-07, 02:31:06,VALID,916.138,VALID,0.0,VALID,98.466,VALID,-0.016,VALID,19.896,VALID,22.0,VALID,0.461,
2017-04-07, 02:32:06,VALID,916.153,VALID,0.0,VALID,98.476,VALID,-0.03,VALID,19.891,VALID,11.0,VALID,0.205,
2017-04-07, 02:33:06,VALID,916.153,VALID,0.0,VALID,98.465,VALID,-0.017,VALID,19.902,VALID,19.0,VALID,0.188,
2017-04-07, 02:34:06,VALID,916.163,VALID,0.0,VALID,98.479,VALID,-0.021,VALID,19.909,VALID,25.0,VALID,0.386,
2017-04-07, 02:35:06,VALID,916.161,VALID,0.0,VALID,98.497,VALID,-0.025,VALID,19.921,VALID,3.0,VALID,0.483,
2017-04-07, 02:36:06,VALID,916.154,VALID,0.0,VALID,98.466,VALID,0.002,VALID,19.898,VALID,353.0,VALID,0.671,
2017-04-07, 02:37:06,VALID,916.154,VALID,0.0,VALID,98.499,VALID,0.015,VALID,19.907,VALID,13.0,VALID,0.459,
2017-04-07, 02:38:06,VALID,916.155,VALID,0.0,VALID,98.475,VALID,0.014,VALID,19.928,VALID,14.0,VALID,0.505,
2017-04-07, 02:39:06,VALID,916.146,VALID,0.0,VALID,98.474,VALID,-0.002,VALID,19.923,VALID,10.0,VALID,0.848,
2017-04-07, 02:40:06,VALID,916.151,VALID,0.0,VALID,98.462,VALID,0.003,VALID,19.927,VALID,11.0,VALID,0.516,
2017-04-07, 02:41:06,VALID,916.145,VALID,0.0,VALID,98.447,VALID,0.015,VALID,19.898,VALID,16.0,VALID,0.369,
2017-04-07, 02:42:06,VALID,916.153,VALID,0.0,VALID,98.461,VALID,0.013,VALID,19.89,VALID,13.0,VALID,0.525,
2017-04-07, 02:43:06,VALID,916.144,VALID,0.0,VALID,98.47,VALID,0.02,VALID,19.913,VALID,13.0,VALID,0.243,
2017-04-07, 02:44:06,VALID,916.153,VALID,0.0,VALID,98.482,VALID,0.003,VALID,19.917,VALID,18.0,VALID,0.263,
2017-04-07, 02:45:06,VALID,916.172,VALID,0.0,VALID,98.473,VALID,0.003,VALID,19.921,VALID,17.0,VALID,0.122,
2017-04-07, 02:46:06,VALID,916.18,VALID,0.0,VALID,98.49,VALID,0.006,VALID,19.921,VALID,351.0,VALID,0.046,
2017-04-07, 02:47:06,VALID,916.195,VALID,0.0,VALID,98.492,VALID,0.019,VALID,19.925,VALID,359.0,VALID,0.065,
2017-04-07, 02:48:06,VALID,916.184,VALID,0.0,VALID,98.479,VALID,0.005,VALID,19.907,VALID,33.0,VALID,0.645,
2017-04-07, 02:49:06,VALID,916.18,VALID,0.0,VALID,98.463,VALID,0.008,VALID,19.907,VALID,13.0,VALID,0.255,
2017-04-07, 02:50:06,VALID,916.187,VALID,0.0,VALID,98.499,VALID,0.011,VALID,19.933,VALID,8.0,VALID,0.013,
2017-04-07, 02:51:06,VALID,916.203,VALID,0.0,VALID,98.448,VALID,0.006,VALID,19.909,VALID,224.0,VALID,0.513,
2017-04-07, 02:52:06,VALID,916.212,VALID,0.0,VALID,98.398,VALID,0.005,VALID,19.851,VALID,250.0,VALID,0.196,
2017-04-07, 02:53:06,VALID,916.224,VALID,0.0,VALID,98.463,VALID,-0.01,VALID,19.852,VALID,318.0,VALID,0.263,
2017-04-07, 02:54:06,VALID,916.242,VALID,0.0,VALID,98.477,VALID,0.023,VALID,19.874,VALID,179.0,VALID,0.406,
2017-04-07, 02:55:06,VALID,916.245,VALID,0.0,VALID,98.45,VALID,-0.005,VALID,19.864,VALID,229.0,VALID,0.554,
2017-04-07, 02:56:06,VALID,916.255,VALID,0.0,VALID,98.439,VALID,-0.005,VALID,19.829,VALID,271.0,VALID,0.479,
2017-04-07, 02:57:06,VALID,916.273,VALID,0.0,VALID,98.459,VALID,0.012,VALID,19.831,VALID,290.0,VALID,0.125,
2017-04-07, 02:58:06,VALID,916.252,VALID,0.0,VALID,98.481,VALID,0.001,VALID,19.854,VALID,25.0,VALID,0.424,
2017-04-07, 02:59:06,VALID,916.289,VALID,0.0,VALID,98.485,VALID,0.004,VALID,19.87,VALID,27.0,VALID,0.254,
2017-04-07, 03:00:06,VALID,916.288,VALID,0.0,VALID,98.459,VALID,0.012,VALID,19.85,VALID,82.0,VALID,0.218,
2017-04-07, 03:01:06,VALID,916.289,VALID,0.0,VALID,98.451,VALID,0.008,VALID,19.83,VALID,268.0,VALID,0.228,
2017-04-07, 03:02:06,VALID,916.282,VALID,0.0,VALID,98.44,VALID,0.005,VALID,19.797,VALID,255.0,VALID,0.009,
2017-04-07, 03:03:06,VALID,916.271,VALID,0.0,VALID,98.47,VALID,0.003,VALID,19.801,VALID,58.0,VALID,0.565,
2017-04-07, 03:04:06,VALID,916.269,VALID,0.0,VALID,98.455,VALID,0.009,VALID,19.826,VALID,45.0,VALID,0.249,
2017-04-07, 03:05:06,VALID,916.258,VALID,0.0,VALID,98.495,VALID,0.007,VALID,19.871,VALID,28.0,VALID,0.35,
2017-04-07, 03:06:06,VALID,916.243,VALID,0.2,VALID,98.509,VALID,-0.023,VALID,19.889,VALID,23.0,VALID,0.321,
2017-04-07, 03:07:06,VALID,916.219,VALID,0.0,VALID,98.488,VALID,-0.036,VALID,19.871,VALID,14.0,VALID,0.618,
2017-04-07, 03:08:06,VALID,916.21,VALID,0.0,VALID,98.499,VALID,-0.039,VALID,19.88,VALID,17.0,VALID,0.164,
2017-04-07, 03:09:06,VALID,916.196,VALID,0.0,VALID,98.511,VALID,-0.05,VALID,19.893,VALID,37.0,VALID,0.458,
2017-04-07, 03:10:06,VALID,916.173,VALID,0.0,VALID,98.472,VALID,-0.052,VALID,19.879,VALID,38.0,VALID,0.096,
2017-04-07, 03:11:06,VALID,916.15,VALID,0.0,VALID,98.471,VALID,-0.046,VALID,19.869,VALID,12.0,VALID,0.464,
2017-04-07, 03:12:06,VALID,916.14,VALID,0.0,VALID,98.513,VALID,-0.048,VALID,19.893,VALID,16.0,VALID,0.312,
2017-04-07, 03:13:06,VALID,916.133,VALID,0.0,VALID,98.468,VALID,-0.045,VALID,19.866,VALID,1.0,VALID,1.227,
2017-04-07, 03:14:06,VALID,916.128,VALID,0.0,VALID,98.444,VALID,-0.053,VALID,19.829,VALID,353.0,VALID,0.564,
2017-04-07, 03:15:06,VALID,916.122,VALID,0.0,VALID,98.435,VALID,-0.05,VALID,19.807,VALID,341.0,VALID,1.001,
2017-04-07, 03:16:06,VALID,916.127,VALID,0.0,VALID,98.432,VALID,-0.04,VALID,19.788,VALID,4.0,VALID,0.917,
2017-04-07, 03:17:06,VALID,916.138,VALID,0.0,VALID,98.473,VALID,-0.048,VALID,19.813,VALID,38.0,VALID,0.729,
2017-04-07, 03:18:06,VALID,916.145,VALID,0.0,VALID,98.489,VALID,-0.035,VALID,19.834,VALID,360.0,VALID,0.461,
2017-04-07, 03:19:06,VALID,916.158,VALID,0.0,VALID,98.487,VALID,-0.046,VALID,19.839,VALID,108.0,VALID,0.078,
2017-04-07, 03:20:06,VALID,916.185,VALID,0.0,VALID,98.502,VALID,-0.051,VALID,19.847,VALID,355.0,VALID,0.398,
2017-04-07, 03:21:06,VALID,916.2,VALID,0.0,VALID,98.504,VALID,0.028,VALID,19.871,VALID,11.0,VALID,0.592,
2017-04-07, 03:22:06,VALID,916.206,VALID,0.0,VALID,98.516,VALID,0.028,VALID,19.893,VALID,19.0,VALID,0.456,
2017-04-07, 03:23:06,VALID,916.228,VALID,0.0,VALID,98.487,VALID,0.022,VALID,19.88,VALID,350.0,VALID,0.473,
2017-04-07, 03:24:06,VALID,916.223,VALID,0.0,VALID,98.504,VALID,0.023,VALID,19.892,VALID,312.0,VALID,0.024,
2017-04-07, 03:25:06,VALID,916.219,VALID,0.0,VALID,98.499,VALID,0.021,VALID,19.88,VALID,28.0,VALID,0.23,
2017-04-07, 03:26:06,VALID,916.21,VALID,0.0,VALID,98.461,VALID,0.002,VALID,19.862,VALID,2.0,VALID,0.436,
2017-04-07, 03:27:06,VALID,916.201,VALID,0.0,VALID,98.44,VALID,0.015,VALID,19.837,VALID,301.0,VALID,0.3,
2017-04-07, 03:28:06,VALID,916.193,VALID,0.0,VALID,98.485,VALID,-0.002,VALID,19.853,VALID,318.0,VALID,0.422,
2017-04-07, 03:29:06,VALID,916.192,VALID,0.0,VALID,98.498,VALID,0.015,VALID,19.882,VALID,357.0,VALID,0.466,
2017-04-07, 03:30:06,VALID,916.208,VALID,0.0,VALID,98.515,VALID,0.019,VALID,19.913,VALID,33.0,VALID,0.713,
2017-04-07, 03:31:06,VALID,916.209,VALID,0.0,VALID,98.527,VALID,0.027,VALID,19.92,VALID,3.0,VALID,0.476,
2017-04-07, 03:32:06,VALID,916.221,VALID,0.0,VALID,98.501,VALID,0.022,VALID,19.91,VALID,326.0,VALID,0.0,
2017-04-07, 03:33:06,VALID,916.237,VALID,0.0,VALID,98.486,VALID,0.01,VALID,19.889,VALID,19.0,VALID,0.078,
2017-04-07, 03:34:06,VALID,916.219,VALID,0.0,VALID,98.478,VALID,0.015,VALID,19.892,VALID,51.0,VALID,0.142,
2017-04-07, 03:35:06,VALID,916.241,VALID,0.0,VALID,98.487,VALID,0.014,VALID,19.916,VALID,161.0,VALID,0.157,
2017-04-07, 03:36:06,VALID,916.251,VALID,0.0,VALID,98.492,VALID,0.001,VALID,19.894,VALID,120.0,VALID,0.19,
2017-04-07, 03:37:06,VALID,916.264,VALID,0.0,VALID,98.471,VALID,0.006,VALID,19.89,VALID,137.0,VALID,0.009,
2017-04-07, 03:38:06,VALID,916.261,VALID,0.0,VALID,98.487,VALID,-0.007,VALID,19.892,VALID,95.0,VALID,0.197,
2017-04-07, 03:39:06,VALID,916.262,VALID,0.0,VALID,98.482,VALID,-0.011,VALID,19.884,VALID,104.0,VALID,0.235,